| time (UTC) | temp F | wind direction | speed MPH | gust MPH | rain 1hr in | rain 24hr in | rain mn in | humidity % | barometer mb |
| 20260503203030 | 84 | 130 | 0.0 | 0.0 | 0.00 | 0.00 | 0.00 | 49 | 1007.0 |
| 20260503201525 | 84 | 130 | 0.0 | 0.0 | 0.00 | 0.00 | 0.00 | 47 | 1007.3 |
| 20260503200021 | 85 | 135 | 0.0 | 0.0 | 0.00 | 0.00 | 0.00 | 52 | 1007.4 |
| 20260503194517 | 85 | 147 | 0.0 | 0.0 | 0.00 | 0.00 | 0.00 | 53 | 1007.6 |
| 20260503193031 | 85 | 166 | 0.0 | 0.0 | 0.00 | 0.00 | 0.00 | 56 | 1007.9 |
| 20260503191507 | 85 | 171 | 0.0 | 1.0 | 0.00 | 0.00 | 0.00 | 54 | 1008.2 |
| 20260503190002 | 85 | 134 | 0.0 | 7.0 | 0.00 | 0.00 | 0.00 | 47 | 1008.5 |
| 20260503184559 | 85 | 126 | 0.0 | 0.0 | 0.00 | 0.00 | 0.00 | 36 | 1008.7 |
| 20260503183112 | 84 | 148 | 0.0 | 0.0 | 0.00 | 0.00 | 0.00 | 18 | 1008.9 |
| 20260503181617 | 84 | 135 | 0.0 | 0.0 | 0.00 | 0.00 | 0.00 | 1 | 1009.2 |
| 20260503180045 | 83 | 173 | 0.0 | 0.0 | 0.00 | 0.00 | 0.00 | 1 | 1009.4 |
| 20260503174542 | 83 | 182 | 0.0 | 9.0 | 0.00 | 0.00 | 0.00 | 1 | 1009.6 |
| 20260503173035 | 83 | 164 | 0.0 | 0.0 | 0.00 | 0.00 | 0.00 | 1 | 1009.9 |
| 20260503171531 | 83 | 199 | 0.0 | 0.0 | 0.00 | 0.00 | 0.00 | 1 | 1010.1 |
| 20260503081552 | 79 | 57 | 0.0 | 0.0 | 0.00 | 0.04 | 0.00 | 1 | 1008.9 |
| 20260503071537 | 80 | 57 | 0.0 | 0.0 | 0.00 | 0.04 | 0.00 | 1 | 1008.9 |
| 20260503054507 | 80 | 57 | 0.0 | 0.0 | 0.00 | 0.04 | 0.00 | 1 | 1010.1 |
| 20260503053008 | 80 | 57 | 0.0 | 0.0 | 0.00 | 0.04 | 0.00 | 1 | 1010.2 |
| 20260503051559 | 80 | 57 | 0.0 | 0.0 | 0.00 | 0.04 | 0.00 | 1 | 1010.2 |
| 20260503050054 | 80 | 57 | 0.0 | 0.0 | 0.00 | 0.04 | 0.00 | 1 | 1010.4 |
| 20260503044556 | 80 | 57 | 0.0 | 0.0 | 0.00 | 0.04 | 0.04 | 1 | 1010.5 |
| 20260503043055 | 80 | 57 | 0.0 | 0.0 | 0.00 | 0.04 | 0.04 | 1 | 1010.6 |
| 20260503041557 | 81 | 57 | 0.0 | 0.0 | 0.00 | 0.04 | 0.04 | 1 | 1010.7 |
| 20260503040052 | 81 | 68 | 0.0 | 0.0 | 0.00 | 0.04 | 0.04 | 1 | 1010.7 |
| 20260503034609 | 80 | 76 | 0.0 | 0.0 | 0.00 | 0.04 | 0.04 | 1 | 1010.8 |
| 20260503033058 | 80 | 76 | 0.0 | 0.0 | 0.00 | 0.04 | 0.04 | 1 | 1010.5 |
| 20260503031557 | 80 | 76 | 0.0 | 0.0 | 0.00 | 0.04 | 0.04 | 1 | 1010.6 |
| 20260503030056 | 81 | 74 | 0.0 | 0.0 | 0.00 | 0.04 | 0.04 | 1 | 1010.4 |
| 20260503024551 | 81 | 74 | 0.0 | 0.0 | 0.00 | 0.04 | 0.04 | 1 | 1010.2 |
| 20260503023057 | 81 | 83 | 0.0 | 0.0 | 0.00 | 0.04 | 0.04 | 1 | 1010.0 |
| 20260503021544 | 81 | 84 | 0.0 | 0.0 | 0.00 | 0.04 | 0.04 | 1 | 1009.9 |
| 20260503020039 | 81 | 82 | 0.0 | 0.0 | 0.00 | 0.04 | 0.04 | 1 | 1009.7 |
| 20260503014534 | 81 | 102 | 0.0 | 0.0 | 0.00 | 0.04 | 0.04 | 1 | 1009.4 |
| 20260503013043 | 81 | 103 | 0.0 | 0.0 | 0.00 | 0.04 | 0.04 | 1 | 1009.3 |
| 20260503011533 | 81 | 98 | 0.0 | 0.0 | 0.00 | 0.04 | 0.04 | 1 | 1008.9 |
| 20260503010022 | 81 | 94 | 0.0 | 0.0 | 0.00 | 0.04 | 0.04 | 1 | 1008.6 |
| 20260503004518 | 81 | 97 | 0.0 | 0.0 | 0.00 | 0.04 | 0.04 | 1 | 1008.4 |
| 20260503003013 | 81 | 103 | 0.0 | 0.0 | 0.00 | 0.04 | 0.04 | 1 | 1008.1 |
| 20260503001513 | 81 | 91 | 0.0 | 0.0 | 0.00 | 0.04 | 0.04 | 1 | 1007.8 |
| 20260503000003 | 83 | 92 | 0.0 | 0.0 | 0.00 | 0.04 | 0.04 | 5 | 1007.6 |
| 20260502234603 | 84 | 24 | 0.0 | 0.0 | 0.00 | 0.04 | 0.04 | 5 | 1007.3 |
| 20260502233054 | 84 | 333 | 0.0 | 0.0 | 0.00 | 0.04 | 0.04 | 12 | 1007.2 |
| 20260502231550 | 84 | 286 | 0.0 | 0.0 | 0.00 | 0.04 | 0.04 | 18 | 1007.0 |
| 20260502230046 | 84 | 284 | 0.0 | 0.0 | 0.00 | 0.04 | 0.04 | 18 | 1006.7 |
| 20260502224542 | 84 | 286 | 0.0 | 0.0 | 0.00 | 0.04 | 0.04 | 18 | 1006.5 |
| 20260502223037 | 85 | 291 | 0.0 | 0.0 | 0.00 | 0.04 | 0.04 | 10 | 1006.3 |
| 20260502221533 | 85 | 252 | 0.0 | 0.0 | 0.00 | 0.04 | 0.04 | 14 | 1006.0 |
| 20260502220029 | 85 | 243 | 0.0 | 0.0 | 0.00 | 0.04 | 0.04 | 17 | 1005.9 |
| 20260502214535 | 85 | 245 | 0.0 | 0.0 | 0.00 | 0.04 | 0.04 | 13 | 1006.1 |
| 20260502213022 | 85 | 227 | 0.0 | 0.0 | 0.00 | 0.04 | 0.04 | 19 | 1006.0 |
| 20260502211524 | 85 | 236 | 0.0 | 0.0 | 0.00 | 0.04 | 0.04 | 21 | 1006.1 |
| 20260502210013 | 86 | 219 | 0.0 | 0.0 | 0.00 | 0.04 | 0.04 | 35 | 1006.0 |
| 20260502204506 | 86 | 177 | 0.0 | 0.0 | 0.00 | 0.04 | 0.04 | 32 | 1006.1 |